Flag for Germany Weather past 2 weeks in Eckernförde, Schleswig-Holstein, Germany

Now
46 °F

Partly sunny.


Feels Like: 44 °F
Forecast: 34 / 52 °F
Wind: 5 mph from Northwest

Location: Schleswig

Current Time: Apr 27, 2015 at 7:57:43 PM

Latest Report: Apr 27, 2015 at 7:00 PM


Visibility: 25 mi

Pressure: 29.80 "Hg

Humidity: 56%

Dew point: 31 °F

Location of EckernfördeLocation

Historic Weather in Eckernförde — Graph

°F

Eckernförde temperature yesterday

Maximum temperature yesterday: 50 °F (at 12:00 AM)
Minimum temperature yesterday: 42 °F (at 4:00 PM)
Average temperature yesterday: 46 °F

Past Weeks' High & Low Weather Summary

 TemperatureHumidityPressure
High64 °F (Apr 20, 4:00 PM)100% (Apr 24, 4:00 AM)30.37 "Hg (Apr 24, 4:00 AM)
Low37 °F (Apr 17, 7:00 AM)24% (Apr 20, 7:00 PM)29.66 "Hg (Apr 25, 6:00 PM)
Average48 °F77%30.07 "Hg
* Reported Apr 12 6:00 PM — Apr 27 6:00 PM, Eckernförde, Weather by CustomWeather, © 2015

Note: Actual official high and low records may vary slightly from our data, if they occured in-between our weather recording intervals... More about our weather records

Advertising

Eckernförde weather history for previous 24 hours

 ConditionsComfort  
Time TempWeatherWind HumidityBarometerVisibility
6:00 PM
Mon, Apr 27
50 °FPartly sunny.6 mph49%29.79 "Hg25 mi
4:00 PM54 °FPartly sunny.6 mph53%29.77 "Hg25 mi
3:00 PM53 °FPartly sunny.6 mph46%29.77 "Hg25 mi
2:00 PM52 °FPartly sunny.8 mph60%29.76 "Hg22 mi
1:00 PM54 °FPartly sunny.5 mph51%29.75 "Hg22 mi
12:00 PM52 °FPartly sunny.3 mph52%29.75 "Hg22 mi
10:00 AM47 °FScattered clouds.2 mph72%29.74 "Hg19 mi
9:00 AM43 °FPartly sunny.2 mph86%29.74 "Hg19 mi
8:00 AM40 °FOvercast.2 mph89%29.73 "Hg19 mi
7:00 AM40 °FOvercast.2 mph90%29.73 "Hg19 mi
6:00 AM40 °FPartly sunny.2 mph89%29.73 "Hg19 mi
5:00 AM40 °FOvercast.2 mph86%29.72 "Hg19 mi
4:00 AM40 °FOvercast.2 mph85%29.73 "Hg19 mi
3:00 AM40 °FOvercast.3 mph84%29.73 "Hg19 mi
2:00 AM40 °FPassing clouds.2 mph88%29.75 "Hg19 mi
1:00 AM40 °FPassing clouds.2 mph94%29.75 "Hg16 mi
12:00 AM40 °FPassing clouds.2 mph95%29.75 "Hg9 mi
10:00 PM
Sun, Apr 26
42 °FPassing clouds.1 mph91%29.75 "Hg16 mi
9:00 PM43 °FPassing clouds.1 mph86%29.75 "Hg19 mi
8:00 PM44 °FOvercast.2 mph80%29.74 "Hg19 mi
7:00 PM46 °FPartly sunny.2 mph80%29.74 "Hg19 mi
Weather by CustomWeather, © 2015

See weather overviewHow to use our weather pages